Location: Evensen
(52.5775°N, 9.5258°E)
Time: 07:44:25
(UTC+00:00)

ISS - Pass Details

Date: 15 May 2026
Orbit: 413 x 423 km, 51.6° (Epoch: 6 June)

Event Time Altitude Azimuth Distance (km) Brightness Sun altitude
Rises 22:58:07 0° 281° (W) 2,355 0.3 -18.2°
Reaches altitude 10° 23:00:26 10° 267° (W) 1,491 -1.0 -18.3°
Enters shadow 23:01:23 16° 255° (WSW) 1,194 -1.6 -18.3°
